Other Public Products
Issued by NWS Grand Forks, ND

Home | Current Version | Previous Version | Text Only | Print | Product List | Glossary On
Versions: 1 2 3 4 5 6 7 8 9 10 11 12 13 14 15 16 17 18 19 20 21 22 23 24 25 26 27 28 29 30 31 32 33 34 35 36 37 38 39 40 41 42 43 44 45 46 47 48 49 50
000
FPUS83 KFGF 280331
OPUFGF
PRAIRIE TO PINES WEATHER ROUNDUP
NATIONAL WEATHER SERVICE EASTERN NORTH DAKOTA/GRAND FORKS ND
1000 PM CDT WED JUL 27 2016

 **SATELLITE DATA USED TO AUGMENT SKY COVER AT AUTOMATED STATIONS**
 *****  WEATHER ACROSS EASTERN NORTH DAKOTA  *****

CITY           SKY/WX    TMP DP  RH WIND       PRES   REMARKS
GRAND FORKS    PTCLDY    67  57  70 N10       30.07R
GRAND FORKS AF CLEAR     66  57  74 N9        30.09R
GRAND CITY NWS   N/A     64 N/A N/A N10         N/A
BUXTON           N/A     67  63  87 NW10        N/A
DEVILS LAKE    CLEAR     62  57  83 NE7       30.14R
FARGO          CLOUDY    69  60  73 NW10      30.05R
WAHPETON ARPT  PTCLDY    64  57  77 NW8       30.05R
$$

 *****  WEATHER ACROSS CENTRAL AND WESTERN NORTH DAKOTA  *****

CITY           SKY/WX    TMP DP  RH WIND       PRES   REMARKS
JAMESTOWN      CLOUDY    63  60  90 N6        30.11R
BISMARCK       MOCLDY    70  61  73 E8        30.12R
MINOT          CLOUDY    69  60  73 NE5       30.13R
MINOT AFB      PTCLDY    67  57  69 E6        30.12R
GARRISON         N/A     67  60  78 E7        30.13R
WILLISTON      PTCLDY    66  59  78 NE5       30.14R
DICKINSON      CLOUDY    63  60  90 NE8       30.13R
HETTINGER      CLEAR     64  58  80 E6        30.14R
$$

 *****  OTHER OBSERVATIONS NORTHEAST NORTH DAKOTA  *****

CITY           SKY/WX    TMP DP  RH WIND       PRES   REMARKS
WALHALLA       FAIR      61  57  88 N6        30.14R
LANGDON        FAIR      61  57  88 NE7       30.16R
CAVALIER       FAIR      64  55  72 N9        30.12R
GRAFTON        FAIR      64  59  82 N10       30.12R
CANDO          FAIR      59  59 100 NE6       30.17R
FORT TOTTEN      N/A     65  55  71 NE3       29.95S
ROLLA          FAIR      57  55  94 NE5       30.17R
RUGBY          NOT AVBL
 ***** THE ABOVE OBSERVATIONS ARE NON NWS ARE NOT QUALITY
        CONTROLLED AND MAY MIS-REPORT RAIN FOR SNOW...
$$

 *****  OTHER OBSERVATIONS SOUTHEAST NORTH DAKOTA *****

CITY           SKY/WX    TMP DP  RH WIND       PRES   REMARKS
COOPERSTOWN    NOT AVBL
VALLEY CITY    FAIR      61  61 100 N6        30.13R
OAKES            N/A    N/A N/A N/A MISG        N/A
GWINNER        FAIR      63  57  82 NW8       30.09S
SHEYENNE NWR     N/A     66  58  74 N3        29.95S
BUFFALO          N/A     63  57  82 N6          N/A
WYNDMERE         N/A     64  61  88 NW3         N/A
 ***** THE ABOVE OBSERVATIONS ARE NON NWS ARE NOT QUALITY
       CONTROLLED AND MAY MIS-REPORT RAIN FOR SNOW...
$$

  *****  WEATHER ACROSS NORTHERN MINNESOTA  *****

CITY           SKY/WX    TMP DP  RH WIND       PRES   REMARKS
FLAG ISLAND    CLEAR     66  54  63 NE13      30.10R
WARROAD        CLEAR     66  59  77 N10       30.10R
ROSEAU         PTCLDY    63  57  82 NE6       30.10R
HALLOCK        CLOUDY    66  59  77 N12       30.10R
THF RVR FALLS  CLOUDY    70  60  70 NE9       30.07R
HALSTAD          N/A     67  59  76 N9          N/A
FOSSTON        CLOUDY    64  61  88 CALM      30.07R
BAUDETTE       CLEAR     65  55  70 NE9       30.07R
WASKISH        PTCLDY    64  57  77 NE5       30.06R
CROOKSTON      PTCLDY    66  61  82 N13       30.08R
$$
  *****  WEATHER ACROSS CENTRAL AND WEST MINNESOTA  *****

CITY           SKY/WX    TMP DP  RH WIND       PRES   REMARKS
BEMIDJI        PTCLDY    61  59  94 W3        30.06R
PARK RAPIDS    CLOUDY    69  62  78 CALM      30.06R
WADENA         CLOUDY    66  63  88 E3        30.06R
DETROIT LAKES  CLOUDY    68  63  83 CALM      30.07R
MOORHEAD       MOCLDY    66  61  82 N8        30.06R
FERGUS FALLS   PTCLDY    66  61  82 N3        30.06R
ELBOW LAKE     FAIR      67  61  79 N6        30.05R
MORRIS MN      CLEAR     64  59  82 NW7       30.04R
STAPLES        MOCLDY    64  61  88 CALM      30.06R
WHEATON        CLOUDY    66  61  82 NW5       30.06S
$$
  *****  WEATHER ELSEWHERE ACROSS MINNESOTA  *****

CITY           SKY/WX    TMP DP  RH WIND       PRES   REMARKS
DULUTH         CLEAR     57  57 100 SE5       30.04R
INTRNTL FALLS  CLEAR     67  54  63 NE7       30.06R
ELY            PTCLDY    61  57  88 CALM      30.06R
CLOQUET        CLEAR     59  55  88 CALM      30.03F
BRAINERD       CLEAR     64  62  93 NW5       30.05R
HIBBING        FOG       58  58 100 CALM      30.04S VSB 1/4
ALEXANDRIA     CLOUDY    69  62  78 NE5       30.06R
SAINT CLOUD    CLOUDY    66  63  90 NE7       30.03R
MINNEAPOLIS    CLOUDY    70  64  81 N6        29.98R
$$

  *****  WEATHER ACROSS SOUTH DAKOTA  *****

CITY           SKY/WX    TMP DP  RH WIND       PRES   REMARKS
SIOUX FALLS    CLOUDY    71  64  78 N7        30.03S
BROOKINGS      MOCLDY    67  61  81 N3        30.06R
WATERTOWN      MOCLDY    65  59  81 NE5       30.07S
HURON          CLOUDY    72  61  68 N9        30.03F
SISSETON         N/A     62  60  93 N6        30.05R
ABERDEEN       MOCLDY    69  61  75 NE3       30.07R
MITCHELL       CLOUDY    73  65  75 NE6       30.03S
PIERRE         CLOUDY    69  63  81 N6        30.06R
MOBRIDGE       CLOUDY    72  60  66 NE8       30.07S
RAPID CITY     MOCLDY    67  58  72 E5        30.15R
$$

  *****  SOME WEATHER IN NEARBY STATES *****

CITY           SKY/WX    TMP DP  RH WIND       PRES   REMARKS
GLASGOW MT     CLOUDY    62  59  90 E6        30.12S
GREAT FALLS MT MOCLDY    74  52  46 E15       30.15R
CHEYENNE WY    CLEAR     68  57  68 E5        30.24R
SCOTTSBLUFF NE CLEAR     75  58  55 NE13      30.14R
OMAHA NE       PTCLDY    77  71  82 N5        29.97R
DES MOINES IA  PTCLDY    80  68  66 CALM      29.95R
DAVENPORT IA   PTCLDY    75  71  87 E5        29.94S
CHICAGO IL     MOCLDY    78  64  61 NW7       29.95R
EAU CLAIRE WI  CLOUDY    66  65  96 E3        29.95R
LA CROSSE WI   CLOUDY    75  70  84 N8        29.92R
$$

  *****  SOME NATIONAL WEATHER *****

CITY           SKY/WX    TMP DP  RH WIND       PRES   REMARKS
LA GUARDIA NY  PTCLDY    83  69  62 S8        29.90F
RALEIGH NC     MOCLDY    77  70  79 NE5       29.97R
ATLANTA GA     PTCLDY    81  66  60 W6        30.05R
NEW ORLEANS LA PTCLDY    81  73  76 S8        30.02R
OKLAHOMA CITY  PTCLDY    74  73  97 S3        29.95R
ALBUQUERQUE NM CLOUDY    83  43  24 E8        30.12R
SALT LAKE CITY CLEAR     94  29  10 E6        30.01F
LOS ANGELES CA PTCLDY    72  66  81 W10       29.88R
BOISE ID       CLEAR     93  41  16 NW9       29.92S
SEATTLE WA     PTCLDY    80  59  48 N9        30.08F
$$

*** WEATHER ACROSS MANITOBA...SASKATCHEWAN AND ONTARIO ***
                ***ONTARIO***

CITY           SKY/WX    TMP DP  RH WIND       PRES   REMARKS
GERALDTON      PTCLDY    61  50  67 N6        30.05R
THUNDER BAY    PTCLDY    63  57  82 NE5       30.03R
SIOUX LOOKOUT  PTCLDY    59  54  82 N5        30.10R
TORONTO        PTCLDY    77  64  65 NW8       29.92S
BIG TROUT LK   NOT AVBL
PICKLE LAKE    NOT AVBL
DRYDEN         CLEAR     59  52  77 N7        30.10S
KENORA         PTCLDY    57  50  77 N3        30.13R
$$
                *** MANITOBA***

CITY           SKY/WX    TMP DP  RH WIND       PRES   REMARKS
BRANDON        MOCLDY    61  55  82 E3        30.15R
DAUPHIN        CLEAR     59  54  82 SW3       30.14R
ISLAND LAKE    PTCLDY    63  55  77 CALM      30.11S
PILOT MOUND      N/A     61  54  77 NE5         N/A
THE PAS        CLOUDY    66  57  72 SE8       30.08S
THOMPSON       MOCLDY    66  52  59 S3        30.07
WINNIPEG       PTCLDY    59  54  82 N5        30.13R
LYNN LAKE      CLOUDY    64  57  77 MISG      30.05R
CHURCHILL      MOCLDY    59  50  72 S13       30.02F
GILLAM         CLOUDY    59  48  67 S5        30.08R
$$
                ***SASKATCHEWAN***

CITY           SKY/WX    TMP DP  RH WIND       PRES   REMARKS
ESTEVAN        MOCLDY    63  57  82 NE5       30.15R
KINDERSLEY     PTCLDY    63  59  88 SE7       30.14S
LLOYDMINSTER   PTCLDY    70  61  73 CALM      30.11R
PRINCE ALBERT  PTCLDY    70  59  68 S7        30.09S
REGINA         PTCLDY    66  55  68 E7        30.16R
YORKTON        CLEAR     64  54  68 S2        30.15R  C1F1C2F2C3F3C4F4C5F5C6F6C7F7C8F8C9F9CaFaCbFbCcFcCdFdCe!


USA.gov is the U.S. government's official web portal to all federal, state and local government web resources and services.